OPS 4682 DEB, 14717

Orbit data source: Space-Track

OPS 4682 DEB, 14717 is space debris in LEO originally from a launch on Sat, 03 Apr 1965 UTC launched from the Air Force Western Test Range (AFWTR). Debris objects in space refer to the collection of defunct objects orbiting the Earth. Examples of debris include non-operational satellites, rocket bodies, and fragments generated from explosions, collisions, or faulty payload assembly.

Loading next visibility...
Identifier
14717, 1965-027Q
Orbit
LEO
Country
Flag of USUS
Related business
Manufacturer
Unknown
Mission
Spacecraft
Bus & Motor
Unknown
Mass
Unknown
Launch date (UTC)
1965-04-03 (61 years ago)
Launch vehicle
Unknown
Launch site
Air Force Western Test Range (AFWTR)
Object type
Payload
Rocket body
Debris
Shape & HBR
Unknown shape, 0.1 m
Radar Cross Section
Small (<0.1 m²)

Expand to show TLE details & history
Last TLE update: 12 hours ago

TLE from 12 hours ago
0 OPS 4682 DEB
1 14717U 65027Q   26104.18003984  .00000163  00000-0  53726-3 0  9992
2 14717  90.2381 349.3446 0030768 256.3988 258.6557 12.97425671107788
Epoch: 2026-04-14T04:19Z
TLE epoch observation values (Epoch: 2026-04-14T04:19:15.442Z)
Latitude
25.31714°
Longitude
-97.71766°
Altitude
1,279.952 km
Speed
7.216 km/s
True Right ascension
11h 17m 49s
True Declination
25° 11' 37"
Sunlit
Object was in full shadow at epoch
Visualization orbit readout
Latitude
Unknown
Longitude
Unknown
Altitude
Unknown
Speed
Unknown
Apparent Right ascension
Unknown
Apparent Declination
Unknown
Sunlit
N/A
Visualization observer readout
Local Sidereal Time
22:57:31
Azimuth
Unknown
Elevation
Unknown
Doppler factor
Unknown
Orbital elements
Apogee altitude
1,292.85 km
Perigee altitude
1,245.791 km
Semi-major axis
7,647.457 km
Eccentricity
0.00308
Inclination
90.2381°
RAAN
349.3446°
Arg. of periapsis
256.3988°
True anomaly
258.31028°
Mean anomaly
258.6557°
Eccentric anomaly
258.48296°
Mean motion
3.2454 °/min
Orbital period
110.93 mins
BSTAR
0.00053726
Loading maneuver chart data...
Computing Atmospheric mass density...
Loading historical data...
Loading historical data...
Loading historical data...
Loading historical data...
Loading historical data...
Loading historical data...
Loading historical data...

Documentation

Showing up to 5 results
|